Location: Innerarity Island Observatory
(30.3139°N, 87.4867°W)
Time: 14:07:40
(UTC-05:00)

FO-29 - Visible Passes

Search period start: 24 April 2017 00:00
Search period end: 04 May 2017 00:00
Orbit: 799 x 1322 km, 98.6° (Epoch: 23 April)

Date Brightness Start Highest point End Pass type
(mag) Time Alt. Az. Time Alt. Az. Time Alt. Az.
24 Apr 12.0 00:03:38 10° NNW 00:03:55 11° NNW 00:03:55 11° NNW visible
24 Apr 11.8 23:07:53 10° NNE 23:08:15 12° NNE 23:08:15 12° NNE visible
25 Apr 11.9 23:58:26 10° N 23:59:04 13° NNW 23:59:04 13° NNW visible
26 Apr 11.7 23:02:48 10° NNE 23:03:23 13° NNE 23:03:23 13° NNE visible
27 Apr 11.7 23:53:14 10° N 23:54:13 15° NNW 23:54:13 15° NNW visible
28 Apr 11.5 22:57:44 10° NNE 22:58:33 15° NNE 22:58:33 15° NNE visible
29 Apr 11.6 23:48:03 10° N 23:49:23 18° NNW 23:49:23 18° NNW visible
30 Apr 11.4 22:52:40 10° NNE 22:53:44 16° NNE 22:53:44 16° NNE visible
01 May 11.4 23:42:52 10° N 23:44:34 20° NNW 23:44:34 20° NNW visible
02 May 11.3 22:47:36 10° NNE 22:48:55 18° NNE 22:48:55 18° NNE visible
03 May 11.9 00:34:48 10° NW 00:35:24 12° NW 00:35:24 12° NW visible
03 May 11.3 23:37:42 10° N 23:39:46 23° NNW 23:39:46 23° NNW visible
